Location: Downe
(51.3167°N, 0.0500°E)
Time: 23:56:57
(UTC+00:00)

COSMOS 2455 - Pass Details

Date: 17 November 2019
Orbit: 902 x 908 km, 67.1° (Epoch: 07 December)

Event Time Altitude Azimuth Distance (km) Brightness Sun altitude
Exits shadow 06:23:42 10° 297° (WNW) 2,566 4.5 -8.8°
Maximum altitude 06:27:41 19° 255° (WSW) 2,002 4.2 -8.2°
Drops below altitude 10° 06:31:46 10° 211° (SSW) 2,584 5.1 -7.6°
Sets 06:34:57 0° 195° (SSW) 3,518 6.0 -7.2°
